Time,TemperatureF,DewpointF,PressureIn,WindDirection,WindDirectionDegrees,WindSpeedMPH,WindSpeedGustMPH,Humidity,HourlyPrecipIn,Conditions,Clouds,dailyrainin,SoftwareType,DateUTC
2013-01-14 00:04:00,44.8,44.0,29.97,SE,146,0.0,2.0,98,0.00,,,0.00,weatherlink.com 1.10,2013-01-14 05:04:00,
2013-01-14 00:19:00,51.9,51.0,29.97,SW,236,1.0,7.0,97,0.00,,,0.00,weatherlink.com 1.10,2013-01-14 05:19:00,
2013-01-14 00:34:00,57.8,57.0,29.97,WSW,246,3.0,7.0,97,0.00,,,0.00,weatherlink.com 1.10,2013-01-14 05:34:00,
2013-01-14 00:49:00,58.4,58.0,29.97,West,259,2.0,8.0,97,0.00,,,0.00,weatherlink.com 1.10,2013-01-14 05:49:00,
2013-01-14 01:04:00,58.7,58.0,29.97,SSW,200,1.0,7.0,98,0.00,,,0.00,weatherlink.com 1.10,2013-01-14 06:04:00,
2013-01-14 01:19:00,58.8,58.0,29.97,SW,229,2.0,8.0,97,0.00,,,0.00,weatherlink.com 1.10,2013-01-14 06:19:00,
2013-01-14 01:34:00,58.8,58.0,29.97,SSW,195,1.0,7.0,98,0.00,,,0.00,weatherlink.com 1.10,2013-01-14 06:34:00,
2013-01-14 01:49:00,59.2,59.0,29.97,SW,228,2.0,7.0,98,0.00,,,0.00,weatherlink.com 1.10,2013-01-14 06:49:00,
2013-01-14 02:04:00,59.3,59.0,29.98,SW,233,4.0,7.0,98,0.00,,,0.00,weatherlink.com 1.10,2013-01-14 07:04:00,
2013-01-14 02:19:00,59.4,59.0,29.98,SSW,205,2.0,6.0,98,0.00,,,0.00,weatherlink.com 1.10,2013-01-14 07:19:00,
2013-01-14 02:34:00,59.3,59.0,29.98,West,269,2.0,6.0,98,0.00,,,0.00,weatherlink.com 1.10,2013-01-14 07:34:00,
2013-01-14 02:49:00,59.4,59.0,29.98,West,262,1.0,8.0,98,0.00,,,0.00,weatherlink.com 1.10,2013-01-14 07:49:00,
2013-01-14 03:04:00,60.1,59.0,29.98,SW,231,8.0,8.0,97,0.00,,,0.00,weatherlink.com 1.10,2013-01-14 08:04:00,
2013-01-14 03:19:00,60.6,60.0,29.97,SW,228,2.0,11.0,96,0.01,,,0.01,weatherlink.com 1.10,2013-01-14 08:19:00,
2013-01-14 03:35:00,61.1,59.0,29.96,SW,227,1.0,13.0,94,0.01,,,0.01,weatherlink.com 1.10,2013-01-14 08:35:00,
2013-01-14 03:50:00,61.2,59.0,29.95,SW,225,4.0,9.0,93,0.01,,,0.01,weatherlink.com 1.10,2013-01-14 08:50:00,
2013-01-14 04:05:00,61.4,59.0,29.95,WSW,242,2.0,7.0,92,0.01,,,0.01,weatherlink.com 1.10,2013-01-14 09:05:00,
2013-01-14 04:20:00,61.4,59.0,29.94,SW,231,3.0,6.0,92,0.00,,,0.01,weatherlink.com 1.10,2013-01-14 09:20:00,
2013-01-14 04:35:00,61.4,59.0,29.94,SE,134,2.0,6.0,92,0.00,,,0.01,weatherlink.com 1.10,2013-01-14 09:35:00,
2013-01-14 05:05:00,61.7,59.0,29.95,SW,217,3.0,7.0,92,0.00,,,0.01,weatherlink.com 1.10,2013-01-14 10:05:00,
2013-01-14 05:20:00,61.7,59.0,29.96,SW,225,2.0,9.0,92,0.00,,,0.01,weatherlink.com 1.10,2013-01-14 10:20:00,
2013-01-14 05:35:00,62.0,59.0,29.97,NW,314,2.0,10.0,91,0.00,,,0.01,weatherlink.com 1.10,2013-01-14 10:35:00,
2013-01-14 05:50:00,61.9,59.0,29.97,SW,236,7.0,8.0,91,0.00,,,0.01,weatherlink.com 1.10,2013-01-14 10:50:00,
2013-01-14 06:05:00,61.7,59.0,29.94,SW,233,1.0,7.0,91,0.00,,,0.01,weatherlink.com 1.10,2013-01-14 11:05:00,
2013-01-14 06:20:00,61.8,60.0,29.98,SW,232,2.0,9.0,92,0.00,,,0.01,weatherlink.com 1.10,2013-01-14 11:20:00,
2013-01-14 06:35:00,61.9,59.0,29.99,West,259,1.0,6.0,91,0.00,,,0.01,weatherlink.com 1.10,2013-01-14 11:35:00,
2013-01-14 06:50:00,61.9,59.0,30.00,West,276,1.0,6.0,91,0.00,,,0.01,weatherlink.com 1.10,2013-01-14 11:50:00,
2013-01-14 07:05:00,61.7,59.0,29.99,NW,307,3.0,5.0,92,0.00,,,0.01,weatherlink.com 1.10,2013-01-14 12:05:00,
2013-01-14 07:20:00,61.0,59.0,30.00,SW,236,1.0,4.0,93,0.00,,,0.01,weatherlink.com 1.10,2013-01-14 12:20:00,
2013-01-14 07:50:00,61.4,59.0,30.02,SW,226,1.0,6.0,93,0.00,,,0.01,weatherlink.com 1.10,2013-01-14 12:50:00,
2013-01-14 08:06:00,61.6,60.0,30.03,West,259,2.0,5.0,93,0.00,,,0.01,weatherlink.com 1.10,2013-01-14 13:06:00,
2013-01-14 08:20:00,62.0,60.0,30.03,SW,236,3.0,8.0,93,0.00,,,0.01,weatherlink.com 1.10,2013-01-14 13:20:00,
2013-01-14 08:35:00,62.4,60.0,30.04,WSW,250,3.0,7.0,92,0.00,,,0.01,weatherlink.com 1.10,2013-01-14 13:35:00,
2013-01-14 08:50:00,62.8,60.0,30.04,WSW,250,2.0,6.0,91,0.00,,,0.01,weatherlink.com 1.10,2013-01-14 13:50:00,
2013-01-14 09:06:00,63.0,60.0,30.05,WSW,253,2.0,7.0,91,0.00,,,0.01,weatherlink.com 1.10,2013-01-14 14:06:00,
2013-01-14 09:20:00,62.9,60.0,30.07,South,170,0.0,5.0,91,0.00,,,0.01,weatherlink.com 1.10,2013-01-14 14:20:00,
2013-01-14 09:35:00,62.7,60.0,30.09,West,276,1.0,6.0,91,0.00,,,0.01,weatherlink.com 1.10,2013-01-14 14:35:00,
2013-01-14 09:50:00,62.4,60.0,30.09,West,274,3.0,5.0,92,0.00,,,0.01,weatherlink.com 1.10,2013-01-14 14:50:00,
2013-01-14 10:05:00,61.8,58.0,30.11,WNW,288,4.0,12.0,88,0.00,,,0.01,weatherlink.com 1.10,2013-01-14 15:05:00,
2013-01-14 10:20:00,61.0,57.0,30.11,NE,41,1.0,6.0,86,0.00,,,0.01,weatherlink.com 1.10,2013-01-14 15:20:00,
2013-01-14 10:36:00,60.4,56.0,30.12,North,360,2.0,6.0,86,0.00,,,0.01,weatherlink.com 1.10,2013-01-14 15:36:00,
2013-01-14 10:51:00,59.5,56.0,30.14,NW,307,3.0,4.0,87,0.01,,,0.02,weatherlink.com 1.10,2013-01-14 15:51:00,
2013-01-14 11:06:00,59.0,56.0,30.13,WNW,287,0.0,4.0,88,0.01,,,0.02,weatherlink.com 1.10,2013-01-14 16:06:00,
2013-01-14 11:21:00,58.4,55.0,30.12,WNW,284,0.0,3.0,89,0.02,,,0.03,weatherlink.com 1.10,2013-01-14 16:21:00,
2013-01-14 11:36:00,58.1,55.0,30.11,WNW,283,0.0,2.0,89,0.02,,,0.03,weatherlink.com 1.10,2013-01-14 16:36:00,
2013-01-14 11:51:00,58.1,55.0,30.12,ENE,59,0.0,2.0,89,0.01,,,0.03,weatherlink.com 1.10,2013-01-14 16:51:00,
2013-01-14 12:06:00,53.9,51.0,30.12,NNE,22,2.0,3.0,90,0.01,,,0.03,weatherlink.com 1.10,2013-01-14 17:06:00,
2013-01-14 12:21:00,53.7,52.0,30.10,NE,51,2.0,3.0,92,0.00,,,0.03,weatherlink.com 1.10,2013-01-14 17:21:00,
2013-01-14 12:36:00,52.5,50.0,30.11,ENE,72,0.0,2.0,92,0.00,,,0.03,weatherlink.com 1.10,2013-01-14 17:36:00,
2013-01-14 12:51:00,52.5,51.0,30.10,North,9,0.0,1.0,93,0.00,,,0.03,weatherlink.com 1.10,2013-01-14 17:51:00,
2013-01-14 13:06:00,52.3,50.0,30.11,West,274,0.0,1.0,91,0.00,,,0.03,weatherlink.com 1.10,2013-01-14 18:06:00,
2013-01-14 13:21:00,54.1,50.0,30.12,NE,34,0.0,3.0,86,0.00,,,0.03,weatherlink.com 1.10,2013-01-14 18:21:00,
2013-01-14 13:36:00,55.6,50.0,30.11,ENE,64,3.0,3.0,80,0.00,,,0.03,weatherlink.com 1.10,2013-01-14 18:36:00,
2013-01-14 13:51:00,55.2,49.0,30.10,ENE,64,0.0,3.0,79,0.00,,,0.03,weatherlink.com 1.10,2013-01-14 18:51:00,
2013-01-14 14:06:00,54.7,49.0,30.12,South,188,0.0,4.0,81,0.00,,,0.03,weatherlink.com 1.10,2013-01-14 19:06:00,
2013-01-14 14:21:00,54.2,48.0,30.12,ENE,63,3.0,4.0,79,0.00,,,0.03,weatherlink.com 1.10,2013-01-14 19:21:00,
2013-01-14 14:36:00,54.8,47.0,30.13,West,269,1.0,5.0,76,0.00,,,0.03,weatherlink.com 1.10,2013-01-14 19:36:00,
2013-01-14 14:51:00,54.7,48.0,30.14,NE,44,2.0,4.0,77,0.00,,,0.03,weatherlink.com 1.10,2013-01-14 19:51:00,
2013-01-14 15:21:00,51.0,46.0,30.15,NE,40,0.0,0.0,84,0.00,,,0.03,weatherlink.com 1.10,2013-01-14 20:21:00,
2013-01-14 15:36:00,49.4,46.0,30.15,NE,47,1.0,1.0,88,0.00,,,0.03,weatherlink.com 1.10,2013-01-14 20:36:00,
2013-01-14 15:51:00,48.8,46.0,30.18,SW,226,0.0,2.0,90,0.00,,,0.03,weatherlink.com 1.10,2013-01-14 20:51:00,
2013-01-14 16:06:00,48.6,45.0,30.18,East,94,1.0,2.0,87,0.00,,,0.03,weatherlink.com 1.10,2013-01-14 21:06:00,
2013-01-14 16:21:00,47.9,44.0,30.18,ENE,58,0.0,1.0,87,0.00,,,0.03,weatherlink.com 1.10,2013-01-14 21:21:00,
2013-01-14 16:36:00,47.6,44.0,30.16,NNE,28,0.0,2.0,88,0.00,,,0.03,weatherlink.com 1.10,2013-01-14 21:36:00,
2013-01-14 16:51:00,47.5,45.0,30.16,West,270,0.0,1.0,89,0.00,,,0.03,weatherlink.com 1.10,2013-01-14 21:51:00,
2013-01-14 17:06:00,47.5,45.0,30.17,West,273,0.0,0.0,89,0.00,,,0.03,weatherlink.com 1.10,2013-01-14 22:06:00,
2013-01-14 17:21:00,47.6,44.0,30.18,NNE,22,0.0,2.0,87,0.00,,,0.03,weatherlink.com 1.10,2013-01-14 22:21:00,
2013-01-14 17:36:00,48.3,44.0,30.20,WNW,287,1.0,2.0,84,0.00,,,0.03,weatherlink.com 1.10,2013-01-14 22:36:00,
2013-01-14 17:51:00,49.3,44.0,30.20,West,261,0.0,4.0,83,0.00,,,0.03,weatherlink.com 1.10,2013-01-14 22:51:00,
2013-01-14 18:06:00,48.9,45.0,30.20,West,281,0.0,1.0,86,0.01,,,0.04,weatherlink.com 1.10,2013-01-14 23:06:00,
2013-01-14 18:21:00,48.6,45.0,30.20,NNE,32,0.0,3.0,87,0.01,,,0.04,weatherlink.com 1.10,2013-01-14 23:21:00,
2013-01-14 18:36:00,49.0,43.0,30.19,SE,139,0.0,2.0,79,0.01,,,0.04,weatherlink.com 1.10,2013-01-14 23:36:00,
2013-01-14 18:51:00,49.4,43.0,30.19,SE,124,0.0,3.0,78,0.01,,,0.04,weatherlink.com 1.10,2013-01-14 23:51:00,
2013-01-14 19:06:00,49.6,43.0,30.21,ESE,115,0.0,3.0,79,0.00,,,0.04,weatherlink.com 1.10,2013-01-15 00:06:00,
2013-01-14 20:06:00,50.1,42.0,30.23,SSW,198,0.0,6.0,75,0.00,,,0.04,weatherlink.com 1.10,2013-01-15 01:06:00,
2013-01-14 20:21:00,49.9,41.0,30.24,ENE,61,0.0,5.0,72,0.00,,,0.04,weatherlink.com 1.10,2013-01-15 01:21:00,
2013-01-14 20:36:00,50.0,41.0,30.24,NE,41,1.0,4.0,70,0.00,,,0.04,weatherlink.com 1.10,2013-01-15 01:36:00,
2013-01-14 20:51:00,49.9,40.0,30.24,WNW,290,0.0,5.0,68,0.00,,,0.04,weatherlink.com 1.10,2013-01-15 01:51:00,
2013-01-14 21:21:00,49.4,40.0,30.23,ENE,74,0.0,5.0,69,0.00,,,0.04,weatherlink.com 1.10,2013-01-15 02:21:00,
2013-01-14 21:37:00,48.8,39.0,30.23,ENE,74,2.0,9.0,68,0.00,,,0.04,weatherlink.com 1.10,2013-01-15 02:37:00,
2013-01-14 21:51:00,47.7,39.0,30.23,ESE,117,2.0,11.0,71,0.00,,,0.04,weatherlink.com 1.10,2013-01-15 02:51:00,
2013-01-14 22:06:00,45.8,39.0,30.24,WNW,285,1.0,10.0,76,0.01,,,0.05,weatherlink.com 1.10,2013-01-15 03:06:00,
2013-01-14 22:21:00,45.2,39.0,30.25,ESE,111,0.0,10.0,78,0.01,,,0.05,weatherlink.com 1.10,2013-01-15 03:21:00,
2013-01-14 22:36:00,44.9,39.0,30.26,WNW,293,3.0,8.0,79,0.01,,,0.05,weatherlink.com 1.10,2013-01-15 03:36:00,
2013-01-14 22:51:00,43.7,38.0,30.26,East,84,1.0,8.0,81,0.02,,,0.06,weatherlink.com 1.10,2013-01-15 03:51:00,
2013-01-14 23:06:00,42.8,38.0,30.27,NE,39,2.0,7.0,84,0.02,,,0.07,weatherlink.com 1.10,2013-01-15 04:06:00,
2013-01-14 23:22:00,42.2,39.0,30.27,NNE,26,2.0,7.0,87,0.04,,,0.09,weatherlink.com 1.10,2013-01-15 04:22:00,
2013-01-14 23:37:00,41.7,39.0,30.27,WSW,257,4.0,9.0,89,0.05,,,0.10,weatherlink.com 1.10,2013-01-15 04:37:00,
2013-01-14 23:52:00,41.4,39.0,30.26,NNE,15,2.0,7.0,90,0.07,,,0.13,weatherlink.com 1.10,2013-01-15 04:52:00,